Date,TemperatureHighF,TemperatureAvgF,TemperatureLowF,DewpointHighF,DewpointAvgF,DewpointLowF,HumidityHigh,HumidityAvg,HumidityLow,PressureMaxIn,PressureMinIn,WindSpeedMaxMPH,WindSpeedAvgMPH,GustSpeedMaxMPH,PrecipitationSumIn
2013-5-1,91,71,51,64,36,-4,52,29,1,29.51,29.39,0,0,0,0.00
2013-5-2,85,70,61,59,34,4,52,29,1,29.55,29.42,0,0,0,0.00
2013-5-3,82,69,62,59,32,4,51,28,1,29.43,29.27,0,0,0,0.00
2013-5-4,75,64,56,54,42,-4,56,46,1,29.37,29.30,0,0,0,0.01
2013-5-5,64,58,53,36,8,-2,38,10,1,29.37,29.28,0,0,0,0.11
2013-5-6,76,61,49,52,15,-5,45,14,1,29.34,29.26,0,0,0,0.01
2013-5-7,85,65,52,59,23,-14,48,20,1,29.36,29.30,0,0,0,0.19
2013-5-8,89,67,53,64,23,-2,46,18,1,29.38,29.32,0,0,0,0.05
2013-5-9,84,65,54,58,17,-1,47,13,1,29.37,29.26,0,0,0,0.57
2013-5-10,77,61,49,18,4,-6,12,1,1,29.28,29.16,0,0,0,0.11
2013-5-11,71,52,44,46,0,-23,43,5,1,29.39,29.22,0,0,0,0.12
2013-5-12,66,47,35,38,14,-16,52,28,1,29.48,29.38,0,0,0,0.00
2013-5-13,76,52,34,41,18,-17,51,27,1,29.55,29.46,0,0,0,0.00
2013-5-14,94,69,51,64,46,31,51,45,26,29.46,29.16,0,0,0,0.00
2013-5-15,92,78,67,65,48,9,50,37,1,29.24,29.16,0,0,0,0.28
2013-5-16,94,74,63,66,24,6,44,13,1,29.34,29.20,0,0,0,0.00
2013-5-17,89,69,60,64,16,4,44,8,1,29.41,29.33,0,0,0,0.17
2013-5-18,86,70,61,54,14,4,35,5,1,29.44,29.33,0,0,0,0.05
2013-5-19,92,74,60,65,25,3,42,13,1,29.36,29.22,0,0,0,0.00
2013-5-20,89,78,70,53,22,-11,30,7,1,29.32,29.19,0,0,0,0.00
2013-5-21,90,74,62,65,24,4,47,12,1,29.27,29.13,0,0,0,0.21
2013-5-22,81,68,60,41,10,3,25,2,1,29.16,29.08,0,0,0,0.28
2013-5-23,71,58,48,11,2,-6,1,1,1,29.52,29.15,0,0,0,0.12
2013-5-24,74,55,45,49,12,-8,46,16,1,29.72,29.51,0,0,0,0.00
2013-5-25,66,55,42,43,12,-11,47,17,1,29.73,29.57,0,0,0,0.00
2013-5-26,74,61,50,50,14,-15,45,14,1,29.66,29.52,0,0,0,0.12
2013-5-27,84,65,54,26,7,-2,13,1,1,29.55,29.24,0,0,0,0.86
2013-5-28,84,73,63,22,13,6,1,1,1,29.33,29.25,0,0,0,0.01
2013-5-29,92,79,68,68,37,-5,49,23,1,29.39,29.30,0,0,0,0.00
2013-5-30,89,79,70,62,26,11,42,10,1,29.43,29.31,0,0,0,0.00
2013-5-31,77,71,65,16,12,7,1,1,1,29.37,29.23,0,0,0,0.61